Location: Vancouver
(49.2500°N, 123.1330°W)
Time: 12:16:06
(UTC-07:00)

ERS-2 - Visible Passes

Search period start: 01 July 2015 00:00
Search period end: 11 July 2015 00:00
Orbit: 516 x 520 km, 98.5° (Epoch: 01 July)

Date Brightness Start Highest point End Pass type
(mag) Time Alt. Az. Time Alt. Az. Time Alt. Az.
01 Jul 2.3 00:10:14 10° NNE 00:14:01 77° WNW 00:15:57 27° SSW visible
01 Jul 2.1 23:56:11 10° NNE 23:59:58 73° ESE 00:01:42 30° S visible
02 Jul 4.9 01:31:44 10° NNW 01:33:31 13° WNW 01:35:10 10° W visible
02 Jul 2.5 23:42:11 10° NNE 23:45:53 49° E 23:47:27 29° SSE visible
03 Jul 4.6 01:17:02 10° NNW 01:19:36 17° WNW 01:22:03 10° WSW visible
03 Jul 3.0 23:28:17 10° NNE 23:31:46 34° E 23:33:12 25° SE visible
04 Jul 4.2 01:02:36 10° N 01:05:39 23° WNW 01:08:15 12° WSW visible
04 Jul 3.6 23:14:30 10° NE 23:17:35 24° E 23:18:56 20° SE visible
05 Jul 3.7 00:48:17 10° N 00:51:41 31° WNW 00:53:59 17° WSW visible
05 Jul 4.0 23:00:52 10° NE 23:03:23 17° E 23:04:41 15° ESE visible
06 Jul 3.1 00:34:03 10° N 00:37:40 44° WNW 00:39:43 22° SW visible
06 Jul 4.3 22:47:39 10° ENE 22:49:08 12° E 22:50:24 11° ESE visible
07 Jul 2.5 00:19:53 10° N 00:23:38 65° WNW 00:25:27 28° SW visible
08 Jul 2.1 00:05:46 10° NNE 00:09:34 86° ESE 00:11:10 33° SSW visible
08 Jul 5.0 01:41:49 10° NW 01:43:02 11° WNW 01:44:07 10° WNW visible
08 Jul 2.3 23:51:44 10° NNE 23:55:28 59° ESE 23:56:53 34° SSE visible
09 Jul 4.8 01:26:51 10° NNW 01:29:07 15° WNW 01:31:16 10° W visible
09 Jul 2.8 23:37:46 10° NNE 23:41:20 40° E 23:42:35 30° SE visible
10 Jul 4.4 01:12:18 10° NNW 01:15:09 20° WNW 01:17:38 11° WSW visible
10 Jul 3.3 23:23:53 10° NE 23:27:10 28° E 23:28:17 24° SE visible
